Location: Edemissen
(51.7689°N, 9.8634°E)
Time: 22:06:45
(UTC+00:00)

STARLINK-1262 - Visible Passes

Search period start: 18 November 2025 00:00
Search period end: 28 November 2025 00:00
Orbit: 546 x 548 km, 53.1° (Epoch: 18 November)

Date Brightness Start Highest point End Pass type
(mag) Time Alt. Az. Time Alt. Az. Time Alt. Az.
19 Nov 6.0 18:20:46 10° SSW 18:21:40 15° SSW 18:21:40 15° SSW visible
20 Nov 5.5 18:14:10 10° SW 18:15:56 22° SSW 18:15:56 22° SSW visible
21 Nov 5.8 16:31:23 10° SSE 16:32:52 12° SE 16:34:21 10° ESE visible
21 Nov 5.0 18:07:37 10° SW 18:10:06 31° SSW 18:10:06 31° SSW visible
22 Nov 5.6 16:23:58 10° S 16:26:20 15° SE 16:28:36 10° E visible
22 Nov 4.4 18:01:09 10° SW 18:04:12 42° SSW 18:04:12 42° SSW visible
23 Nov 5.4 16:16:55 10° S 16:19:48 19° SE 16:22:38 10° E visible
23 Nov 4.0 17:54:40 10° WSW 17:58:14 56° SSW 17:58:14 56° SSW visible
24 Nov 5.2 16:10:02 10° SSW 16:13:19 23° SE 16:16:35 10° E visible
24 Nov 3.6 17:48:14 10° WSW 17:52:12 72° S 17:52:12 72° S visible
25 Nov 4.9 16:03:16 10° SSW 16:06:48 28° SE 16:10:21 10° E visible
25 Nov 3.4 17:41:50 10° WSW 17:45:58 82° SSE 17:46:07 80° ESE visible
25 Nov 6.9 19:21:28 10° W 19:21:43 11° W 19:21:43 11° W visible
26 Nov 4.7 15:56:34 10° SSW 16:00:19 34° SE 16:04:04 10° E visible
26 Nov 3.4 17:35:26 10° WSW 17:39:34 90° NNW 17:40:00 71° ENE visible
26 Nov 6.7 19:15:06 10° W 19:15:35 13° W 19:15:35 13° W visible
27 Nov 4.4 15:49:56 10° SW 15:53:49 41° SSE 15:57:43 10° ENE visible
27 Nov 3.5 17:29:02 10° W 17:33:11 83° NNW 17:33:51 61° ENE visible
27 Nov 6.6 19:08:43 10° WNW 19:09:26 15° WNW 19:09:26 15° WNW visible
